星链-30162 (STARLINK-30162 )

导读

STARLINK-30162是美国太空探索技术公司(SpaceX)研发运营的星链(Starlink)低轨互联网卫星,于2023年7月24日发射,属于Starlink v1.5平台,运行在倾角约53.16°的近地轨道,近地点约477公里、远地点约478公里,轨道周期约94分钟,目前仍在服役。它依托低轨布局与相控阵、OFDM等技术,为全球提供低时延宽带互联网接入服务,是星链巨型星座的组成单元。

基本信息
目录编号:
57446
目录名称:
STARLINK-30162
国际标识:
2023-105S
轨道中心:
EARTH
卫星名称:
星链-30162
卫星全名:
星链-30162 (STARLINK-30162 )
卫星状态:
在轨 (已飞行1138 天)
发射日期:
2023-07-24 UTC
国别 :
美国 (US)
星等 :
--
轨道信息
数据来源 国际轨道数据 AOE轨道数据
星历时间 2026-09-03T22:48:17+0800
16小时前
查看轨道信息
2026-09-03T08:00:00+0800
1天前
查看轨道信息
半长轴 6861.205km 6861.173km
偏心率 0.0001405 0.0001466
轨道倾角 43.004° 43.002°
近地点辐角 268.025° 271.337°
升交点赤经 323.964° 327.448°
平近点角 92.044° 292.491°
近地点 482.104km 482.03km
远地点 484.032km 484.042km
周期 94.267分钟 94.266分钟
每日圈数 15.275737 15.275844
详细信息
固有亮度:
5
最大亮度:
0.3
卫星平台:
Starlink v2.0 mini
覆盖范围:
全球
运营商:
太空探索技术公司
运营商所在国:
美国
制造商(研发单位):
太空探索技术公司
制造商所在国:
美国
使用方式:
暂无
卫星简介
星链(Starlink)计划是由太空探索技术公司(SpaceX)提出的一个巨型低轨卫星互联网星座项目,计划在2019年至2024年间在太空搭建由约1.2万颗卫星组成的“星链”网络,其中1584颗将部署在地球上空550千米处的近地轨道,并从2020年开始工作。该卫星仍在工作。
2D轨道图
3D轨道图
轨道高度分析图
轨道倾角分析图
轨道综合分析图
查看轨道综合分析图
交会数据列表
事件ID 空间交会对象 最接近时刻(TCA) 交会距离 交会风险概率(CRP) 交会风险指数(CRI) 操作
CDM_260905-125205-744606-656221
2026-09-05T
12:52:50+0000
0.723 km
远距离
5.075596E-5 中风险 0.69
CDM_260904-153304-283905-744622
2026-09-04T
15:33:43+0000
1.720 km
极远距离
3.876508E-6 低风险 0.47
CDM_260905-123405-744606-390521
2026-09-05T
12:34:59+0000
1.567 km
极远距离
3.239778E-6 低风险 0.45
CDM_260831-124905-744606-656222
2026-08-31T
12:49:53+0000
2.178 km
极远距离
1.581691E-6 低风险 0.39